Orbital Elements at Epoch 2459000.5 (2020-May-31.0) TDB
Reference: JPL 17 (heliocentric ecliptic J2000)
Element | Value | Uncertainty (1-sigma) | Units |
e | .1711867708571564 | 9.9264e-08 | |
a | 2.523591339114669 | 1.5188e-08 | au |
q | 2.091585886808542 | 2.5073e-07 | au |
i | 11.869106623756 | 4.7411e-06 | deg |
node | 296.1531508593748 | 3.6481e-05 | deg |
peri | 65.97237605753328 | 3.8976e-05 | deg |
M | 335.9187379864494 | 1.2053e-05 | deg |
tp | 2459098.449835620064 (2020-Sep-05.94983562) | 4.8922e-05 | TDB |
period | 1464.289571010899 4.01 | 1.3219e-05 3.619e-08 | d yr |
n | .245853010993903 | 2.2195e-09 | deg/d |
Q | 2.955596791420796 | 1.7788e-08 | au |
|
| | Orbit Determination Parameters
Additional Information
|